User: anonymous   Login
Location: Scultetus-Sternwarte G�rlitz
(51.1356°N, 14.9514°E)
Time: 01:27:28
(UTC+02:00)
Language:

Iridium 3 - Orbit

View from above orbital plane
View from above orbital plane
View from above satellite
View from above satellite

Ground track
Ground track

The orbit data is extracted from the following two-line orbital elements,

1 25431U 98048A   16244.45038634  .00000128  00000-0  38809-4 0  9997
2 25431  86.3987  16.8267 0002039  97.4704 332.8325 14.34216975944086
Epoch (UTC): 31 August 2016 10:48:33
Eccentricity: 0.0002039
inclination: 86.3987°
perigee height: 776 km
apogee height: 779 km
right ascension of ascending node: 16.8267°
argument of perigee: 97.4704°
revolutions per day: 14.34216975
mean anomaly at epoch: 332.8325°
orbit number at epoch: 94408

The dashed part of the orbit path shows where the satellite is in the earth's shadow,  

DLR